EW8775 Weather Reports


time (UTC)temp
F
wind
direction
speed
knots
gust
knots
rain 1hr
in
rain 24hr
in
rain mn
in
humidity
%
barometer
mb
20220124103017 26 0.0 0.0 0.00 0.00 0.00 78 1022.1
20220124100017 26 0.0 0.0 0.00 0.00 0.00 78 1022.2
20220124093017 26 0.0 0.0 0.00 0.00 0.00 76 1022.4
20220124090017 27 0.0 0.0 0.00 0.00 0.00 76 1022.7
20220124083017 26 0.0 0.0 0.00 0.00 0.00 76 1023.0
20220124080017 27 0.0 0.0 0.00 0.00 0.00 74 1023.5
20220124073017 27 90 0.9 2.6 0.00 0.00 0.00 74 1023.6
20220124070016 28 90 0.9 3.5 0.00 0.00 0.00 73 1023.8
20220124063016 29 0.0 0.0 0.00 0.00 0.00 72 1023.9
20220124060015 29 112 0.9 2.6 0.00 0.00 0.00 71 1024.1
20220124053015 29 0.0 3.5 0.00 0.00 0.00 71 1024.2
20220124050015 29 90 0.9 2.6 0.00 0.00 0.00 72 1024.1
20220124043016 30 90 1.7 3.5 0.00 0.00 0.00 70 1024.3
20220124040015 30 90 1.7 3.5 0.00 0.00 0.00 70 1024.4
20220124033015 30 90 0.9 4.3 0.00 0.00 0.00 71 1024.3
20220124030018 30 90 0.9 2.6 0.00 0.00 0.00 71 1024.3
20220124023017 31 90 1.7 3.5 0.00 0.00 0.00 70 1024.2
20220124020017 31 90 0.9 3.5 0.00 0.00 0.00 71 1024.4
20220124013017 32 0.0 0.0 0.00 0.00 0.00 68 1024.2
20220124010017 33 0.0 2.6 0.00 0.00 0.00 65 1024.4
20220124003017 35 202 1.7 5.2 0.00 0.00 0.00 64 1024.6
20220124000016 36 225 2.6 5.2 0.00 0.00 0.00 61 1024.8
20220123233017 37 225 1.7 4.3 0.00 0.00 0.00 60 1025.0
20220123230017 38 247 1.7 4.3 0.00 0.00 0.00 59 1025.1
20220123223016 37 247 2.6 6.1 0.00 0.00 0.00 61 1025.5
20220123220017 37 270 1.7 7.0 0.00 0.00 0.00 60 1025.2
20220123213016 36 270 2.6 7.0 0.00 0.00 0.00 64 1025.3
20220123210016 35 180 2.6 7.0 0.00 0.00 0.00 64 1025.5
20220123203016 35 180 2.6 6.1 0.00 0.00 0.00 65 1025.9
20220123200016 34 202 1.7 7.0 0.00 0.00 0.00 67 1026.3
20220123193016 33 202 1.7 5.2 0.00 0.00 0.00 67 1026.9
20220123190016 32 247 1.7 6.1 0.00 0.00 0.00 70 1027.3
20220123183016 31 202 1.7 4.3 0.00 0.00 0.00 73 1027.9
20220123180016 30 315 0.9 4.3 0.00 0.00 0.00 75 1028.0
20220123173016 28 22 0.9 3.5 0.00 0.00 0.00 78 1028.1
20220123170016 27 0.0 2.6 0.00 0.00 0.00 78 1028.0
20220123163016 26 0.0 0.0 0.00 0.00 0.00 79 1028.0
20220123160015 25 0.0 0.0 0.00 0.00 0.00 82 1028.0
20220123153016 23 0.0 0.0 0.00 0.00 0.00 79 1027.9
20220123150015 23 0.0 0.0 0.00 0.00 0.00 79 1027.8
20220123143015 23 22 0.9 3.5 0.00 0.00 0.00 79 1027.6
20220123140016 23 0.0 1.7 0.00 0.00 0.00 82 1027.5
20220123133015 23 0.0 2.6 0.00 0.00 0.00 83 1027.2
20220123130016 23 0.0 2.6 0.00 0.00 0.00 81 1027.2
20220123123016 23 0.0 0.0 0.00 0.00 0.00 82 1027.4
20220123120015 23 0.0 0.0 0.00 0.00 0.00 79 1027.6
20220123113015 24 0.0 0.0 0.00 0.00 0.00 77 1027.8
20220123110015 24 0.0 1.7 0.00 0.00 0.00 78 1027.9